Jacksonville, FL

6:11 AM EST on December 12, 2017 (GMT -0500)
Jacksonville International

Weather History for KJAX - June, 2013

Change the Weather History Date:

Thursday, June 6, 2013

  Actual Average Record
Temperature  
Mean Temperature 75 °F 79 °F  
Max Temperature 79 °F 89 °F 99 °F (1985)
Min Temperature 71 °F 69 °F 60 °F (1971)
Degree Days  
Heating Degree Days 0 0  
Month to date heating degree days 0 0  
Since 1 June heating degree days 0 0  
Since 1 July heating degree days 1243 1349  
Cooling Degree Days 10 14  
Month to date cooling degree days 78 80  
Year to date cooling degree days 514 564  
Since 1 June cooling degree days 78 80  
Growing Degree Days 25 (Base 50)    
Moisture  
Dew Point 72 °F    
Average Humidity 91    
Maximum Humidity 94    
Minimum Humidity 87    
Precipitation  
Precipitation 2.18 in 0.18 in 5.92 in (1968)
Month to date precipitation 2.71 1.02  
Year to date precipitation 19.95 16.58  
Snow  
Snow 0.00 in 0.00 in 0.00 in (2002)
Month to date snowfall 0.0 0.0  
Since 1 June snowfall 0.0 0.0  
Since 1 July snowfall 0.0 T  
Snow Depth 0.00 in    
Sea Level Pressure  
Sea Level Pressure 29.76 in    
Wind  
Wind Speed 12 mph (ESE)    
Max Wind Speed 28 mph    
Max Gust Speed 37 mph    
Visibility 5 miles    
Events Fog , Rain    
T = Trace of Precipitation, MM = Missing Value Source: NWS Daily Summary

Daily Weather History Graph

Daily Weather History Graph

Search for Another Location

Airport or City:

Trip Planner

Search our weather history database for the weather conditions in past years. The results will help you decide how hot, cold, wet, or windy it might be!

Date:

Astronomy

Jun. 06, 2013 Rise Set
Actual Time 6:24 AM EDT 8:27 PM EDT
Civil Twilight 5:56 AM EDT 8:54 PM EDT
Nautical Twilight 5:23 AM EDT 9:27 PM EDT
Astronomical Twilight 4:47 AM EDT 10:03 PM EDT
Moon 4:58 AM EDT (6/6) 6:52 PM EDT (6/6)
Length of Visible Light 14h 57m
Length of Day
14h 02m
Waning Crescent, 4% of the Moon is Illuminated
Jun 6
Waning Crescent
Jun 8
New
Jun 16
First Quarter
Jun 23
Full
Jun 30
Last Quarter

Hourly Weather History & Observations

Time (EDT) Temp. Dew Point Humidity Pressure Visibility Wind Dir Wind Speed Gust Speed Precip Events Conditions
12:56 AM 72.0 °F 70.0 °F 93% 29.96 in 10.0 mi Calm Calm - N/A   Overcast
1:56 AM 73.0 °F 71.1 °F 93% 29.94 in 10.0 mi East 3.5 mph - N/A   Overcast
2:56 AM 73.0 °F 71.1 °F 93% 29.91 in 10.0 mi East 3.5 mph - N/A   Overcast
3:56 AM 73.0 °F 71.1 °F 93% 29.90 in 10.0 mi ENE 4.6 mph - N/A   Overcast
4:56 AM 73.9 °F 72.0 °F 93% 29.88 in 10.0 mi East 4.6 mph - N/A   Overcast
5:56 AM 75.0 °F 72.0 °F 90% 29.87 in 10.0 mi East 5.8 mph - N/A   Overcast
6:56 AM 75.0 °F 73.0 °F 94% 29.86 in 10.0 mi East 5.8 mph - N/A   Overcast
7:27 AM 75.2 °F 73.4 °F 94% 29.86 in 4.0 mi East 6.9 mph - 0.02 in Rain Rain
7:40 AM 75.2 °F 73.4 °F 94% 29.87 in 2.5 mi ESE 5.8 mph - 0.07 in Rain Heavy Rain
7:56 AM 71.1 °F 69.1 °F 93% 29.88 in 1.0 mi South 11.5 mph 28.8 mph 0.22 in Rain Heavy Rain
8:08 AM 71.6 °F 69.8 °F 94% 29.87 in 2.5 mi SSE 6.9 mph - 0.21 in Rain Rain
8:32 AM 71.6 °F 69.8 °F 94% 29.88 in 1.0 mi ESE 12.7 mph 19.6 mph 0.31 in Rain Heavy Rain
8:41 AM 71.6 °F 69.8 °F 94% 29.87 in 4.0 mi ESE 8.1 mph 20.7 mph 0.40 in Rain Light Rain
8:56 AM 72.0 °F 70.0 °F 93% 29.88 in 8.0 mi East 6.9 mph - 0.42 in Rain Light Rain
9:20 AM 73.4 °F 71.6 °F 94% 29.88 in 7.0 mi East 8.1 mph - 0.01 in Rain Light Rain
9:27 AM 71.6 °F 71.6 °F 100% 29.88 in 2.0 mi East 8.1 mph - 0.02 in Rain Rain
9:56 AM 73.0 °F 71.1 °F 93% 29.88 in 5.0 mi East 5.8 mph - 0.10 in Rain Light Rain
10:12 AM 73.4 °F 71.6 °F 94% 29.87 in 5.0 mi ENE 6.9 mph - 0.01 in Rain Light Rain
10:32 AM 73.4 °F 71.6 °F 94% 29.87 in 5.0 mi ESE 9.2 mph - 0.03 in Rain Light Rain
10:56 AM 75.0 °F 72.0 °F 90% 29.87 in 3.0 mi SE 8.1 mph - 0.07 in Rain Rain
10:59 AM 75.2 °F 71.6 °F 89% 29.87 in 2.0 mi SE 9.2 mph - 0.00 in Rain Rain
11:56 AM 73.0 °F 71.1 °F 93% 29.84 in 2.0 mi East 12.7 mph 19.6 mph 0.20 in Rain Rain
12:24 PM 73.4 °F 71.6 °F 94% 29.82 in 1.5 mi SE 18.4 mph 25.3 mph 0.06 in Rain Heavy Rain
12:36 PM 73.4 °F 71.6 °F 94% 29.82 in 2.0 mi ESE 20.7 mph 33.4 mph 0.13 in Rain Rain
12:46 PM 73.4 °F 69.8 °F 88% 29.83 in 0.8 mi ESE 19.6 mph 36.8 mph 0.16 in Rain Heavy Rain
12:56 PM 73.0 °F 71.1 °F 93% 29.83 in 0.8 mi ESE 16.1 mph 27.6 mph 0.39 in Rain Heavy Rain
1:07 PM 73.4 °F 71.6 °F 94% 29.81 in 2.5 mi ESE 13.8 mph - 0.04 in Rain Rain
1:36 PM 75.2 °F 71.6 °F 89% 29.79 in 6.0 mi ESE 20.7 mph 25.3 mph 0.07 in Rain Light Rain
1:56 PM 75.0 °F 72.0 °F 90% 29.78 in 10.0 mi ESE 12.7 mph 24.2 mph 0.07 in Rain Light Rain
2:34 PM 75.2 °F 71.6 °F 89% 29.75 in 1.5 mi ESE 15.0 mph 23.0 mph 0.01 in Rain Light Rain
2:43 PM 75.2 °F 71.6 °F 89% 29.74 in 3.0 mi ESE 15.0 mph - 0.08 in Rain Rain
2:56 PM 75.0 °F 72.0 °F 90% 29.74 in 3.0 mi ESE 13.8 mph - 0.09 in Rain Light Rain
3:45 PM 75.2 °F 73.4 °F 94% 29.70 in 2.0 mi East 16.1 mph 25.3 mph 0.08 in Rain Rain
3:56 PM 75.0 °F 73.0 °F 94% 29.69 in 1.5 mi ESE 13.8 mph - 0.14 in Rain Heavy Rain
4:05 PM 75.2 °F 73.4 °F 94% 29.68 in 0.5 mi ESE 13.8 mph - 0.06 in Fog , Rain Rain
4:19 PM 75.2 °F 73.4 °F 94% 29.67 in 2.0 mi ESE 15.0 mph 21.9 mph 0.19 in Rain Heavy Rain
4:56 PM 75.9 °F 73.9 °F 94% 29.66 in 3.0 mi South 17.3 mph 24.2 mph 0.31 in Rain Light Rain
5:09 PM 78.8 °F 75.2 °F 89% 29.64 in 4.0 mi SE 11.5 mph - 0.01 in Rain Light Rain
5:56 PM 78.1 °F 73.9 °F 87% 29.61 in 10.0 mi ESE 10.4 mph - 0.01 in   Mostly Cloudy
6:24 PM 78.8 °F 73.4 °F 83% 29.59 in 10.0 mi ESE 13.8 mph 18.4 mph N/A   Mostly Cloudy
6:56 PM 77.0 °F 73.9 °F 90% 29.59 in 6.0 mi SE 16.1 mph 23.0 mph 0.01 in Rain Light Rain
7:56 PM 75.9 °F 73.9 °F 94% 29.58 in 4.0 mi SSE 10.4 mph 19.6 mph 0.03 in Rain Light Rain
8:09 PM 75.2 °F 73.4 °F 94% 29.58 in 5.0 mi SSE 9.2 mph - 0.04 in Rain Light Rain
8:56 PM 75.0 °F 71.1 °F 87% 29.58 in 10.0 mi SE 12.7 mph - 0.04 in   Mostly Cloudy
9:56 PM 73.9 °F 71.1 °F 91% 29.56 in 6.0 mi SE 19.6 mph 25.3 mph 0.00 in Rain Light Rain
10:37 PM 73.4 °F 71.6 °F 94% 29.54 in 5.0 mi SSE 20.7 mph 28.8 mph 0.00 in Rain Light Rain
10:56 PM 73.0 °F 71.1 °F 93% 29.54 in 4.0 mi SSE 18.4 mph 25.3 mph 0.01 in Rain Light Rain
11:41 PM 73.4 °F 71.6 °F 94% 29.52 in 3.0 mi South 25.3 mph 31.1 mph 0.04 in Rain Light Rain
11:47 PM 73.4 °F 71.6 °F 94% 29.52 in 2.0 mi South 19.6 mph 33.4 mph 0.05 in Rain Light Rain
11:54 PM 73.4 °F 71.6 °F 94% 29.53 in 3.0 mi South 21.9 mph 33.4 mph 0.06 in Rain Light Rain
11:56 PM 73.9 °F 72.0 °F 93% 29.53 in 3.0 mi SSW 24.2 mph 33.4 mph 0.06 in Rain Light Rain